CAPE
920 1027 929 832 682 566 565 589 592 584 690 767 820 844 872 875 874 808 750 686 653 705 731 688 595 968 1159 1140 1145 1133 1048 983 988 999 1071 996 1002 1001 1176 1299 1466 1547 1642 1665 1754 1869 1965 2043 2278 2642 2885 2937 2977 2848 2794 2812 2956 3431 3362 3396 3781 3662 3108
820 982 1006 862 792 668 590 580 607 604 588 728 774 803 792 799 794 756 746 709 650 602 617 607 594 772 1091 1179 1196 1219 1156 1102 1101 1516 1182 1192 1524 1217 1040 1266 1419 1486 1499 1540 1606 1733 1934 1894 2074 2228 2493 2916 3188 2905 2809 2768 2704 2739 2890 2816 2975 3025 3082
906 923 1001 954 790 737 639 605 615 628 621 627 743 742 744 754 769 761 744 716 652 575 508 455 558 574 924 1141 1231 1262 1246 1271 1305 1380 1272 1115 1195 1303 1219 1282 1359 1443 1488 1511 1499 1594 2081 1921 1927 2012 2132 2327 2592 2752 2700 2668 2706 2855 2886 2721 2756 3036 2863
1093 964 988 993 887 728 661 627 619 627 638 627 714 734 719 742 746 742 716 609 630 573 523 474 443 465 713 1016 1172 1276 1298 1313 1425 1477 1458 1431 1392 1315 1379 1421 1432 1512 1594 1659 1817 1882 2032 2171 1970 1929 2868 2284 2203 2309 2471 2633 2608 2773 2911 2859 2705 2614 2698
1194 1186 1068 1031 950 845 690 617 543 565 588 577 557 679 717 720 709 708 662 564 572 582 520 473 430 442 628 813 1018 1158 1308 1345 1382 1479 1570 1562 1527 1455 1430 1525 1518 1592 1698 1738 1901 2312 2237 2270 2136 2013 1984 2292 2284 2152 2345 2459 2524 2673 2808 2843 2813 2689 2702
1148 1210 1221 1130 1070 950 848 701 575 579 613 603 588 643 662 620 626 645 610 548 524 516 532 474 522 607 541 676 846 978 1129 1294 1352 1373 1519 1609 1660 1630 1572 1579 1626 1664 1692 1818 2148 2109 2073 2014 2095 2087 2016 1979 2060 2162 2195 2303 2396 2418 2674 2579 2664 2635 2665
1036 1175 1196 1236 1187 1126 1012 836 693 619 629 638 478 435 569 695 629 594 561 553 477 507 524 518 600 576 619 661 760 914 921 1059 1180 1243 1383 1576 1606 1779 1810 1731 1970 1719 1758 1852 1931 2069 2029 2053 2056 2018 2020 1988 2294 2242 2338 2472 2478 2288 2292 2288 2271 2206 2129
1076 867 1124 1184 1209 1226 1158 978 815 673 660 668 514 370 380 504 620 601 580 582 480 478 476 587 616 647 638 691 740 780 837 906 996 1089 1175 1478 1543 1698 1768 1833 1963 1930 1849 1771 1808 1852 1965 1995 1982 2007 2018 2010 2020 2017 2019 2084 2218 2259 2267 2259 2180 1921 1516
985 899 786 1005 1090 1071 1008 873 835 846 706 525 448 359 318 352 470 569 611 567 530 500 530 614 618 639 677 704 773 824 822 870 945 990 1058 1268 1431 1538 1592 1667 1800 1899 1920 1888 1887 1921 1989 2089 2144 2074 1903 1824 1830 1870 1865 1758 1850 1990 2117 2166 2075 1799 1542
947 810 654 849 673 915 978 864 704 656 523 434 435 420 409 353 378 470 538 562 498 528 484 693 661 644 723 700 775 840 880 902 948 989 1038 1099 1221 1359 1478 1514 1568 1647 1742 1837 1900 1966 2022 2058 2032 1967 1795 1708 1724 1759 1589 1250 1246 1492 1684 1766 1723 1606 1565
791 688 679 668 845 846 767 852 803 673 538 334 375 452 417 360 358 402 442 470 510 510 540 680 745 694 736 737 785 845 898 951 992 1042 1047 1071 1040 1153 1258 1324 1425 1496 1527 1558 1592 1642 1669 1735 1787 1789 1635 1564 1589 1623 1448 1173 1015 955 1001 1117 1246 1299 1300
626 561 628 634 736 842 873 865 882 832 736 605 328 370 372 417 385 409 423 442 621 701 791 513 750 762 798 810 805 837 875 928 1002 1052 1082 1087 1042 1019 1079 1164 1202 1283 1364 1386 1384 1373 1362 1390 1435 1453 1417 1378 1372 1427 1349 1197 1047 861 879 954 1002 1009 1010
503 513 532 561 605 645 810 867 890 888 867 740 575 330 376 397 464 415 399 387 591 662 750 835 805 808 865 912 866 854 857 907 946 1024 1056 1174 1182 1050 999 1018 1063 1087 1148 1223 1258 1272 1291 1343 1369 1381 1325 1315 1340 1402 1375 1253 1122 908 751 782 869 857 959
427 547 575 662 593 550 602 803 903 868 849 833 739 554 420 415 435 458 458 442 464 649 742 795 828 828 854 999 997 945 942 936 954 995 1049 1097 1163 1145 1066 1014 993 1024 1026 1133 1143 1181 1236 1276 1251 1272 1304 1335 1327 1328 1254 1311 1243 1010 736 708 775 821 930
571 742 800 828 844 779 602 556 656 790 802 783 704 609 460 366 389 408 421 431 442 645 714 835 878 840 849 1006 1123 1114 1080 1067 1077 1059 1087 1260 1132 1099 1108 1090 1055 1040 1044 1078 1139 1183 1207 1240 1197 1306 1309 1278 1259 1264 1294 1304 1204 1112 1012 821 878 954 995
451 764 804 880 811 735 782 794 808 778 758 773 712 620 529 425 340 363 365 378 396 604 697 785 900 909 901 970 1111 1226 1242 1218 1253 1238 1140 1160 1181 1109 1124 1124 1122 1111 1116 1119 1137 1175 1192 1192 1261 1289 1243 1185 1251 1281 1291 1174 1222 1166 1196 1264 1066 1075 1092
451 515 592 617 619 566 546 572 588 675 786 836 805 696 595 530 455 390 374 355 368 450 685 789 877 948 964 979 1060 1195 1291 1298 1330 1342 1252 1176 1212 1170 1173 1190 1193 1204 1209 1202 1197 1195 1224 1241 1135 1162 1216 1200 1222 1270 1287 1190 1203 1124 968 1014 1180 1326 1096
562 512 579 558 482 510 490 472 443 426 420 522 758 744 562 457 413 381 358 364 351 356 492 790 881 951 1025 1051 1071 1147 1244 1302 1345 1361 1349 1285 1276 1275 1288 1324 1362 1386 1376 1343 1359 1401 1392 1294 1195 1158 1150 1176 1222 1252 1225 1186 1162 1157 945 924 1049 1186 1552
671 584 646 637 557 505 472 443 436 403 357 354 406 557 666 593 418 354 342 354 358 294 295 644 863 978 1049 1092 1118 1147 1190 1255 1317 1315 1354 1372 1374 1384 1410 1470 1502 1525 1488 1388 1436 1481 1488 1483 1343 1212 1154 1183 1217 1170 1106 1124 1150 1083 967 997 1031 1020 999
658 693 675 621 500 396 320 336 376 380 357 296 258 246 381 631 610 447 376 471 321 323 288 451 670 912 1063 1126 1129 1163 1164 1191 1257 1313 1355 1392 1428 1462 1511 1524 1540 1571 1524 1430 1383 1454 1533 1548 1497 1364 1325 1290 1165 1026 1030 1100 1059 872 788 830 968 1004 1041
822 777 673 506 410 358 327 280 302 336 318 285 244 198 234 408 621 606 547 565 496 376 288 312 469 671 960 1087 1133 1150 1172 1195 1211 1250 1306 1356 1406 1474 1472 1459 1540 1592 1578 1460 1391 1395 1477 1559 1536 1400 1299 1204 1048 933 1031 1030 898 883 868 877 914 1064 1156
574 509 452 455 421 372 331 305 261 242 240 230 238 129 66 68 432 622 581 448 562 576 466 385 356 443 672 977 1153 1219 1238 1241 1262 1252 1280 1296 1324 1335 1415 1474 1534 1631 1568 1458 1388 1397 1449 1526 1470 1354 1268 1126 1045 969 982 983 991 991 1004 996 947 970 1128
487 572 536 464 361 327 293 224 197 253 231 225 242 245 242 2 1 260 504 565 439 473 530 496 430 415 523 721 971 1170 1255 1283 1287 1275 1246 1217 1039 985 1421 1514 1534 1543 1487 1444 1370 1341 1378 1408 1360 1294 1194 1211 1134 1068 1077 1105 1112 1095 1084 1090 1088 1056 1078
622 575 484 375 300 306 351 388 348 348 350 336 309 266 36 2 2 2 1 332 501 469 459 542 540 508 482 692 852 999 1118 1205 1260 1304 1307 1075 846 619 1006 1453 1487 1474 1460 1423 1329 1284 1280 1275 1314 1314 1292 1276 1152 1064 1139 1258 1226 1180 1182 1197 1214 1204 1182
582 419 351 295 246 277 373 445 470 418 364 322 248 43 3 2 1 1 1 1 1 201 446 432 530 558 565 532 612 836 1019 1144 1134 1071 963 845 778 609 966 1311 1488 1455 1444 1416 1330 1277 1235 1262 1077 1096 882 902 1128 1282 1281 1145 1060 1147 1316 1343 1300 1267 1221
393 347 293 246 222 251 358 408 395 405 365 299 278 238 1 2 1 0 0 0 2 1 7 334 418 468 523 571 555 501 601 784 956 1008 1025 1038 1066 1037 964 1235 1427 1400 1301 1265 1387 1293 1337 1444 1475 1364 1212 1125 1376 1415 1412 1413 1380 1341 1293 1267 1239 1181 1077
433 340 147 200 160 236 265 264 264 262 254 212 64 3 2 1 0 0 0 0 0 0 1 3 180 334 440 506 546 577 538 620 734 872 967 1005 1012 1046 978 945 1180 1370 1502 1584 1548 1414 1374 1621 1656 1609 1601 1503 1449 1405 1421 1389 1405 1149 867 638 558 492 504
296 20 0 0 174 278 278 255 237 103 4 17 17 202 75 10 44 73 18 294 455 386 0 1 98 251 343 435 501 560 568 527 559 672 780 859 946 1010 964 915 1143 1515 1543 1599 1395 1435 1601 1577 1584 1507 1458 1339 1392 1294 1230 1028 868 728 433 96 0 0 0
8 0 0 0 118 343 334 331 298 86 210 261 229 36 41 42 104 182 253 358 459 169 0 2 85 194 282 379 490 537 582 594 582 702 790 851 837 889 1035 1170 1350 1511 1527 1425 1168 1289 1597 1640 1561 1470 1405 1241 1215 1071 853 492 216 0 0 0 0 0 0
0 0 0 0 0 18 258 310 1 333 286 250 43 64 64 95 176 278 315 386 455 264 7 34 88 194 235 312 426 482 550 629 712 758 849 818 825 872 1139 1364 1434 1386 1160 1157 1454 1534 1552 1466 1316 1061 893 972 806 499 241 118 65 0 0 0 0 0 0
0 0 0 0 0 0 1 0 0 0 294 72 95 93 136 150 252 344 380 435 450 385 247 124 180 229 245 321 395 420 530 612 707 719 796 936 898 959 932 1042 1297 1200 1107 1311 1306 1309 1278 1026 982 761 639 464 346 194 136 49 0 0 1 0 0 0 0
0 0 0 0 0 0 0 0 1 22 109 181 156 85 172 267 299 390 444 414 412 429 430 318 261 270 308 305 292 282 487 562 560 526 678 843 974 972 904 1133 1240 1317 1237 1149 1029 972 889 822 619 457 340 273 187 104 32 0 0 0 0 0 0 0 0
0 0 0 0 0 0 0 0 4 68 158 250 195 265 306 282 356 327 290 304 371 398 411 360 309 310 229 256 259 270 227 410 350 408 490 634 677 761 808 797 1069 1094 944 721 706 544 357 304 225 156 30 71 32 8 2 0 0 0 0 0 0 0 0
0 0 0 0 0 0 3 7 11 101 216 297 280 335 369 326 325 319 366 321 288 301 304 378 385 306 301 334 335 282 314 466 519 566 634 532 579 843 770 603 518 496 378 254 215 161 92 58 62 48 24 7 3 0 0 0 0 0 0 0 0 0 0
0 0 0 0 0 0 6 190 297 335 303 316 320 413 392 345 334 289 305 277 246 196 170 0 2 0 204 236 308 299 347 306 443 345 595 539 334 186 134 136 115 123 102 66 45 12 8 1 1 3 2 2 0 0 0 0 0 0 0 0 0 0 0
0 0 0 0 0 0 63 208 270 336 385 380 371 406 341 234 170 166 117 77 64 50 27 0 0 21 108 157 170 128 72 57 109 88 39 60 65 62 47 32 6 34 40 17 4 2 0 1 0 0 0 0 0 0 0 0 0 0 0 0 0 0 0
0 0 0 0 0 0 3 163 349 372 402 356 363 334 265 130 58 42 23 0 5 63 0 0 4 13 70 141 109 39 15 11 9 14 6 8 14 17 16 14 8 6 4 6 2 0 2 0 0 0 0 0 0 0 0 0 0 0 0 0 0 0 0
0 0 0 0 0 0 25 139 212 386 425 399 334 247 187 129 25 1 1 12 15 50 83 78 70 48 38 35 30 13 7 9 1 1 2 1 1 1 3 4 0 1 2 0 0 0 0 0 0 0 0 0 0 0 0 20 15 0 0 0 0 0 0
Wind_Speed
6 7 10 10 9 11 14 13 9 7 7 7 7 7 6 5 5 5 5 6 4 4 5 5 5 6 5 5 5 4 4 5 6 6 7 8 8 8 8 8 8 8 8 7 7 7 7 7 6 5 5 5 4 4 4 4 4 4 4 3 2 1 2
9 7 8 10 10 9 12 16 14 10 9 9 9 7 7 6 6 5 5 6 5 5 6 6 6 6 6 7 7 6 5 5 6 7 7 9 10 10 9 8 8 8 8 8 8 9 9 8 7 6 6 6 5 5 5 4 4 4 3 2 2 2 1
13 11 10 11 11 11 11 16 18 14 10 10 9 8 7 7 7 5 5 6 6 6 7 7 6 7 9 10 9 7 6 7 6 6 6 7 8 9 10 10 9 9 9 10 10 10 9 8 7 7 7 6 7 5 5 4 3 3 3 2 1 2 2
19 16 14 14 15 16 14 15 17 17 15 12 9 8 8 8 8 6 5 6 6 7 7 7 8 9 10 10 10 10 8 8 7 7 7 7 7 9 10 11 10 11 10 9 9 9 10 9 8 7 7 7 7 6 5 4 3 2 2 1 1 1 1
25 23 20 18 17 19 19 20 22 23 23 19 14 11 10 10 10 9 6 6 6 6 6 6 8 9 11 11 12 12 10 9 9 9 8 8 8 9 10 10 10 9 9 10 9 9 9 8 8 7 6 6 6 6 5 4 4 3 3 3 4 4 3
27 25 25 24 21 21 24 28 30 33 37 39 35 28 21 14 12 9 7 6 7 8 9 9 8 10 10 11 12 12 13 12 11 10 9 9 10 10 9 10 9 9 9 8 9 8 7 7 6 5 5 5 6 7 7 7 8 7 5 4 3 3 3
25 27 27 23 20 21 24 26 26 25 27 27 21 19 19 16 12 10 10 7 7 8 8 8 8 9 10 13 12 12 12 11 12 11 12 12 11 11 10 10 10 9 9 10 8 8 7 5 5 5 6 6 6 6 5 5 4 4 4 3 2 2 2
22 24 24 21 21 25 24 24 23 23 24 27 25 23 19 17 15 13 10 8 8 9 9 9 10 10 11 12 13 11 12 12 13 14 14 13 13 12 12 12 12 10 10 8 8 7 7 6 7 8 7 6 5 4 4 3 2 3 4 3 1 1 2
18 20 22 22 22 23 22 22 21 23 25 26 27 27 22 20 17 14 12 12 11 10 9 10 11 11 11 11 12 12 12 14 14 15 14 14 15 14 14 14 13 12 10 10 9 8 8 8 9 9 7 6 5 4 3 3 3 4 5 4 3 2 3
18 19 23 25 24 24 24 22 20 23 24 22 25 27 25 22 19 16 15 15 14 10 10 12 14 14 13 11 10 11 13 13 14 15 15 15 16 14 14 14 14 13 11 10 10 9 9 10 10 8 6 4 3 3 4 5 5 6 6 4 5 4 4
17 17 21 25 26 24 24 25 21 19 21 21 22 26 26 24 22 19 16 17 15 13 13 13 15 16 14 12 11 11 12 12 13 14 14 14 15 14 14 14 14 14 12 11 9 9 11 11 9 7 7 6 5 7 7 6 6 7 6 7 6 5 5
17 17 18 21 23 23 23 24 25 24 24 23 21 22 25 27 27 23 19 16 17 16 16 14 15 15 15 15 13 12 11 12 14 13 14 14 15 13 14 14 14 13 13 11 9 9 11 9 8 8 7 7 8 8 7 8 8 9 9 9 8 7 7
18 17 17 18 20 21 20 22 24 24 24 24 24 24 26 28 29 28 23 19 18 18 17 17 16 15 16 16 14 14 12 13 13 13 14 14 14 14 14 13 13 12 11 10 9 9 12 9 7 8 9 8 9 9 9 10 12 11 11 10 10 9 10
22 21 20 19 21 23 23 21 21 23 23 22 22 24 26 28 30 30 27 22 21 20 19 19 17 15 15 16 15 15 14 14 14 15 15 16 15 14 13 12 12 11 10 10 8 9 11 10 9 9 12 10 9 9 12 13 14 13 13 12 12 12 12
25 23 21 22 21 21 22 21 21 20 20 20 21 21 22 23 25 30 31 29 26 24 20 19 19 16 15 15 14 14 15 17 17 18 17 17 16 15 14 13 12 12 11 10 10 12 13 12 11 11 11 11 11 13 14 15 14 15 15 14 14 15 15
24 25 24 22 22 21 21 20 20 20 20 19 19 20 21 21 22 26 31 31 28 26 24 23 19 18 16 14 13 15 17 18 19 19 19 18 16 15 14 13 13 13 12 12 12 13 14 13 13 14 13 13 14 15 16 15 15 14 13 15 17 17 17
22 23 22 20 20 21 21 21 22 22 21 20 20 19 20 21 22 24 30 32 31 28 28 27 22 19 17 14 13 15 19 20 19 20 19 17 16 16 16 15 16 16 16 15 15 15 16 16 15 16 16 15 16 17 17 17 17 14 14 15 16 18 20
20 20 21 19 19 20 22 23 22 22 22 22 22 21 20 21 22 22 25 30 31 32 33 30 26 22 19 17 17 18 19 20 21 21 19 19 17 16 17 18 19 19 19 18 17 18 19 18 17 18 18 19 18 19 19 21 25 25 24 23 24 23 23
18 18 21 21 20 19 21 21 21 20 21 21 22 23 21 20 21 22 24 27 30 36 36 32 29 27 23 21 21 20 21 22 22 22 21 20 19 19 20 20 20 20 20 18 18 21 21 20 20 20 21 22 23 24 25 25 27 26 26 27 29 30 27
19 20 22 21 20 19 19 20 19 18 18 19 20 22 22 21 20 21 23 25 30 34 36 35 33 30 27 26 24 23 22 23 23 23 22 22 22 23 23 23 21 21 22 22 22 22 23 26 25 25 26 26 28 29 28 28 28 25 25 27 30 30 27
20 20 20 21 22 22 21 20 19 18 19 19 21 23 24 24 24 23 23 24 26 30 34 37 36 33 31 28 27 26 25 25 25 24 25 25 25 26 25 24 24 24 26 26 27 27 27 26 29 30 30 31 31 31 31 29 30 27 27 27 29 30 27
18 18 19 20 21 20 20 21 20 19 19 21 22 23 nan nan 25 25 23 23 22 26 30 34 35 34 34 31 30 29 28 28 27 30 36 38 34 28 26 26 26 28 32 34 33 33 33 33 32 32 33 33 34 33 33 31 33 30 31 31 29 29 28
18 16 16 18 21 21 22 22 21 22 23 24 24 24 23 nan nan 23 23 22 21 22 26 30 32 34 35 33 33 33 34 33 33 34 34 36 36 34 28 27 32 33 33 35 34 35 35 33 32 32 34 37 37 36 34 33 35 36 37 36 34 31 30
19 18 18 19 21 22 22 22 25 26 26 26 25 23 nan nan nan nan nan 20 20 20 21 24 27 31 34 34 33 35 37 35 34 33 30 30 32 36 35 33 32 33 32 35 36 37 35 35 37 36 36 39 39 37 38 38 39 41 41 40 39 36 35
19 19 18 18 19 21 22 26 28 28 27 26 25 nan nan nan nan nan nan nan nan 19 19 20 22 26 30 34 37 36 37 35 34 36 37 35 38 42 42 39 37 36 38 39 39 40 39 39 41 38 38 42 43 44 43 42 42 44 45 45 44 41 40
18 18 18 19 20 24 28 29 29 30 29 27 24 24 nan nan nan nan nan nan nan nan nan 19 22 24 28 33 36 38 37 35 35 39 41 40 39 40 43 43 42 42 42 42 41 41 40 41 43 44 41 44 43 42 42 45 44 45 48 47 49 50 45
17 19 17 20 24 28 31 30 29 28 29 28 nan nan nan nan nan nan nan nan nan nan nan nan 23 25 27 31 35 37 39 40 40 40 39 39 41 44 47 47 47 46 46 44 41 42 43 45 45 47 46 45 45 45 46 46 46 46 49 48 48 50 51
15 nan nan nan 25 29 30 31 31 30 nan nan nan 26 nan nan nan nan nan 9 8 9 nan nan nan 26 30 31 33 34 37 40 41 40 40 42 45 46 48 49 51 51 52 48 45 46 48 48 47 46 46 46 48 49 49 51 52 47 49 nan nan nan nan
nan nan nan nan 24 27 30 32 32 nan 31 30 30 nan nan nan 19 15 12 7 5 9 nan nan nan 27 29 31 33 33 35 37 39 40 41 42 45 51 53 53 54 54 54 53 51 51 52 51 49 48 48 49 50 50 49 49 50 nan nan nan nan nan nan
nan nan nan nan nan nan 29 30 nan 32 32 31 nan nan nan nan 23 20 19 17 16 13 nan nan nan 28 30 30 32 34 36 36 36 38 40 43 47 52 54 54 56 56 54 54 55 55 54 51 50 49 50 51 49 48 48 48 nan nan nan nan nan nan nan
nan nan nan nan nan nan nan nan nan nan 33 nan nan nan 31 29 27 27 28 24 20 19 21 22 22 26 28 30 31 34 36 38 38 38 39 42 47 51 53 56 58 58 55 56 55 55 55 52 50 51 51 52 50 47 46 nan nan nan nan nan nan nan nan
nan nan nan nan nan nan nan nan nan nan 34 35 35 nan 31 30 29 31 28 26 26 24 24 22 22 22 24 27 31 34 40 43 42 41 44 45 45 48 52 57 58 57 55 56 54 54 56 55 52 50 50 51 50 48 nan nan nan nan nan nan nan nan nan
nan nan nan nan nan nan nan nan nan nan 35 37 36 34 31 29 29 29 27 28 26 26 25 26 28 28 27 28 30 32 36 42 40 42 43 43 45 49 53 57 58 56 54 54 54 53 53 53 52 51 nan nan nan nan nan nan nan nan nan nan nan nan nan
nan nan nan nan nan nan nan nan nan 30 34 36 35 33 31 30 29 29 28 27 25 24 27 27 28 30 32 33 30 28 29 30 41 44 40 39 44 51 54 54 54 51 50 51 52 52 nan nan nan nan nan nan nan nan nan nan nan nan nan nan nan nan nan
nan nan nan nan nan nan nan 22 24 28 31 34 33 32 32 31 29 28 29 28 25 24 28 nan nan nan 32 32 30 28 26 28 31 36 39 41 44 46 45 47 46 44 42 nan nan nan nan nan nan nan nan nan nan nan nan nan nan nan nan nan nan nan nan
nan nan nan nan nan nan nan 24 24 25 28 31 32 32 33 33 30 29 29 nan nan nan nan nan nan nan 31 31 31 31 nan nan 36 nan nan nan nan nan nan nan nan nan nan nan nan nan nan nan nan nan nan nan nan nan nan nan nan nan nan nan nan nan nan
nan nan nan nan nan nan nan 22 22 23 26 28 29 32 33 33 nan nan nan nan nan nan nan nan nan nan nan 32 34 nan nan nan nan nan nan nan nan nan nan nan nan nan nan nan nan nan nan nan nan nan nan nan nan nan nan nan nan nan nan nan nan nan nan
nan nan nan nan nan nan nan 21 23 24 23 24 27 29 30 31 nan nan nan nan nan nan nan nan nan nan nan nan nan nan nan nan nan nan nan nan nan nan nan nan nan nan nan nan nan nan nan nan nan nan nan nan nan nan nan nan nan nan nan nan nan nan nan
Wind_Direction
247 249 262 265 255 248 253 255 248 233 235 234 240 258 268 266 275 270 262 258 261 246 230 225 222 222 225 224 234 227 213 210 203 197 193 189 189 194 198 202 203 192 195 195 183 179 173 190 183 173 181 178 172 166 155 156 150 149 144 149 159 130 96
258 252 260 270 272 257 248 252 251 237 229 234 238 252 260 274 263 262 257 254 259 262 249 231 219 212 216 215 220 221 216 209 202 191 191 183 179 176 178 184 184 176 174 170 174 174 180 178 180 171 170 174 164 159 160 157 144 145 145 136 130 123 85
242 244 241 250 264 261 248 244 249 247 237 236 240 244 258 266 264 270 255 247 242 236 235 236 221 212 212 215 216 209 207 211 206 196 193 185 170 161 165 170 169 171 165 169 173 171 176 176 176 171 171 172 163 158 156 156 142 137 129 122 120 104 75
243 243 244 235 234 246 245 237 245 246 237 236 243 247 246 257 257 253 253 257 257 241 240 233 226 213 212 216 212 207 202 199 201 200 193 186 169 165 167 164 167 170 172 167 170 173 175 181 177 172 169 171 157 152 159 135 140 123 104 134 155 126 119
240 240 240 241 236 239 240 231 225 227 224 215 214 228 233 239 249 247 245 245 251 256 251 255 236 223 213 213 209 207 202 201 198 198 197 190 185 182 172 169 173 174 166 171 178 179 176 178 179 177 170 163 152 157 149 147 142 156 170 197 179 189 172
243 248 248 247 249 253 257 254 248 242 236 223 205 200 203 213 227 238 246 251 239 227 225 227 235 232 224 218 213 208 208 201 199 201 200 202 204 198 185 179 183 181 183 181 189 187 187 182 175 175 174 179 172 170 172 175 185 194 205 224 218 214 205
241 242 248 254 257 255 251 256 259 261 258 249 235 229 222 213 216 221 223 229 239 241 232 227 229 231 222 222 216 214 212 206 204 200 205 207 210 207 198 196 196 194 194 208 197 201 197 188 180 192 201 202 204 198 198 211 219 226 233 225 214 228 246
238 240 243 243 250 259 260 257 255 255 253 241 225 224 235 237 230 219 216 214 228 230 226 226 224 226 224 221 220 219 214 210 208 205 207 208 211 211 211 210 209 207 211 211 204 207 193 188 206 222 227 225 226 227 233 248 269 271 269 278 346 344 278
240 244 242 237 237 247 257 266 260 259 258 240 225 222 226 229 238 238 224 217 214 224 224 227 223 223 225 224 223 221 218 217 214 213 212 211 212 211 212 215 217 219 216 212 208 208 199 208 220 226 226 223 229 229 227 238 247 250 262 269 275 256 245
240 231 231 232 238 243 246 244 246 255 257 248 232 227 228 228 229 237 237 232 223 216 223 228 224 221 220 222 223 225 225 223 219 220 217 216 215 214 214 218 219 223 221 214 212 208 210 224 229 228 226 224 225 225 221 238 242 248 251 257 262 266 271
244 236 228 226 229 237 244 246 242 238 248 250 238 231 230 231 233 233 235 239 237 222 222 226 229 227 220 220 223 226 227 225 225 222 222 220 219 217 217 218 218 221 221 217 205 208 224 228 230 232 229 225 228 227 228 238 254 260 260 263 268 275 273
245 248 236 224 224 229 241 249 245 237 228 224 233 235 228 230 233 231 230 234 240 237 230 230 232 232 228 222 221 223 227 228 227 224 224 224 223 222 219 219 218 216 218 217 203 212 233 242 235 236 237 234 232 234 235 243 253 263 270 273 274 270 270
244 247 245 235 225 227 237 243 247 247 242 236 228 227 225 233 236 234 231 228 232 236 238 235 234 235 235 231 225 221 223 228 229 228 226 224 225 224 222 222 222 221 218 217 209 221 243 238 235 230 238 238 239 241 246 249 253 259 266 267 266 265 263
238 243 245 242 237 232 232 238 241 242 249 249 245 238 232 230 232 233 232 230 232 235 237 234 236 235 237 238 233 226 223 226 230 231 230 228 227 228 227 228 227 227 225 221 215 223 242 242 237 231 238 241 246 244 247 251 253 257 260 263 268 271 270
240 241 242 242 240 238 236 234 237 241 242 249 257 257 247 240 237 233 230 227 225 231 238 240 236 233 236 239 241 237 231 229 229 232 234 234 233 232 231 232 232 231 228 223 216 225 239 240 239 242 248 247 253 255 254 257 258 258 261 265 271 273 273
244 244 242 239 237 237 239 241 240 235 238 242 250 256 258 256 246 234 228 231 231 227 231 241 239 235 233 234 240 242 239 235 232 234 238 239 239 239 237 237 236 234 231 225 221 225 236 240 243 247 253 260 261 263 261 263 263 270 288 281 272 274 274
246 243 244 244 243 240 238 237 238 239 235 235 241 248 250 251 252 239 225 227 233 233 233 238 238 237 234 229 231 239 241 239 234 234 237 239 240 240 240 238 236 234 233 230 227 230 236 240 247 252 255 261 263 266 266 263 261 263 278 282 282 276 276
246 245 244 240 240 239 238 234 231 230 230 232 233 239 247 246 246 241 228 228 234 238 238 236 237 238 236 230 229 233 239 241 240 236 232 233 235 239 239 238 237 236 237 236 234 235 240 243 246 250 255 257 261 262 263 264 251 249 252 257 261 260 266
250 244 241 239 236 235 235 234 231 230 229 230 232 235 238 244 245 242 234 231 236 242 244 241 239 240 241 238 236 235 238 241 243 242 236 232 230 231 232 235 237 237 238 239 238 240 243 245 249 251 252 255 260 260 255 257 247 249 253 258 261 263 271
247 239 236 238 235 232 232 233 230 230 230 232 234 236 236 238 242 244 243 241 240 242 241 241 241 241 241 244 243 241 241 244 246 246 244 238 234 231 231 232 234 235 236 236 239 242 244 247 251 252 251 250 252 253 252 252 241 246 254 262 267 272 278
243 242 237 231 227 226 227 227 224 221 222 227 232 235 235 234 237 239 242 245 245 244 239 238 239 240 242 245 247 247 247 247 246 246 246 243 240 238 235 235 234 234 235 236 238 243 247 250 252 247 249 249 251 251 250 249 238 245 250 259 270 278 280
252 244 238 237 231 227 225 225 223 218 213 221 226 229 nan nan 232 234 235 240 245 245 242 238 239 239 239 240 245 249 252 252 248 245 240 235 230 232 238 241 241 243 242 241 240 240 241 238 244 251 250 248 248 250 248 246 238 242 245 248 259 281 276
261 253 243 237 236 230 226 223 222 220 217 217 221 225 226 nan nan 229 231 234 239 245 242 242 241 240 238 237 240 246 251 255 255 251 251 252 247 232 228 244 250 250 249 249 249 248 242 242 243 247 252 254 254 255 254 249 242 244 245 247 249 264 272
258 251 244 235 233 232 231 227 225 225 221 215 216 221 nan nan nan nan nan 230 235 240 238 236 238 238 233 232 239 245 250 254 254 251 251 255 258 253 245 242 248 258 260 261 258 254 253 251 249 248 253 256 255 255 257 254 247 247 249 250 252 257 267
266 257 249 242 236 231 232 230 225 222 221 217 212 nan nan nan nan nan nan nan nan 232 228 228 230 232 231 231 234 241 250 253 253 253 253 249 244 243 248 255 254 249 249 250 253 257 256 253 254 252 250 254 255 256 257 255 251 250 252 254 256 260 264
270 261 253 246 239 236 232 229 225 224 222 218 214 216 nan nan nan nan nan nan nan nan nan 227 228 230 232 237 242 245 249 253 255 255 255 254 252 249 249 249 251 253 252 249 251 253 251 251 252 252 249 250 252 255 256 255 253 252 254 256 261 266 268
279 277 267 250 238 231 232 232 232 228 224 223 nan nan nan nan nan nan nan nan nan nan nan nan 234 237 242 244 247 250 249 249 254 260 261 259 256 252 252 255 258 256 253 250 247 250 250 250 252 253 252 252 255 257 256 254 254 252 254 256 260 267 271
277 nan nan nan 245 238 234 233 231 228 nan nan nan 220 nan nan nan nan nan 215 223 224 nan nan nan 252 252 254 255 255 254 254 254 259 260 259 257 255 254 254 256 257 255 251 249 249 249 248 248 249 250 251 252 253 254 256 257 256 257 nan nan nan nan
nan nan nan nan 251 243 238 235 233 nan 228 227 225 nan nan nan 216 217 222 224 225 226 nan nan nan 261 261 260 260 259 258 257 259 256 255 259 260 257 255 255 256 257 256 254 250 249 250 249 249 249 249 249 250 250 252 253 256 nan nan nan nan nan nan
nan nan nan nan nan nan 243 238 nan 233 231 230 nan nan nan nan 226 229 233 232 231 246 nan nan nan 264 264 263 263 263 259 259 261 261 258 257 256 257 260 258 257 258 259 257 254 252 252 251 251 249 249 250 250 249 249 250 nan nan nan nan nan nan nan
nan nan nan nan nan nan nan nan nan nan 233 nan nan nan 231 232 232 234 235 235 239 263 269 269 267 268 267 264 263 264 261 255 255 261 261 259 258 257 258 258 258 257 257 257 254 252 251 250 249 249 250 252 255 254 252 nan nan nan nan nan nan nan nan
nan nan nan nan nan nan nan nan nan nan 234 233 232 nan 234 234 237 238 238 241 245 248 251 254 262 268 268 262 259 258 257 255 247 242 252 254 254 257 257 259 258 257 256 254 252 248 247 248 248 249 252 254 255 255 nan nan nan nan nan nan nan nan nan
nan nan nan nan nan nan nan nan nan nan 235 234 232 234 234 234 236 238 238 239 241 246 251 252 249 247 248 251 247 242 251 257 256 255 253 255 260 260 256 254 255 256 252 250 250 246 244 247 249 250 nan nan nan nan nan nan nan nan nan nan nan nan nan
nan nan nan nan nan nan nan nan nan 239 236 236 234 235 235 234 232 231 233 233 234 245 255 253 250 247 246 246 245 239 235 249 270 268 261 256 253 255 254 254 256 254 248 247 248 248 nan nan nan nan nan nan nan nan nan nan nan nan nan nan nan nan nan
nan nan nan nan nan nan nan 256 251 245 239 236 234 235 235 233 231 229 229 228 228 239 252 nan nan nan 243 239 238 235 235 239 230 239 251 250 245 243 249 255 254 251 244 nan nan nan nan nan nan nan nan nan nan nan nan nan nan nan nan nan nan nan nan
nan nan nan nan nan nan nan 259 256 249 243 238 235 235 236 235 234 231 228 nan nan nan nan nan nan nan 236 236 234 232 nan nan 225 nan nan nan nan nan nan nan nan nan nan nan nan nan nan nan nan nan nan nan nan nan nan nan nan nan nan nan nan nan nan
nan nan nan nan nan nan nan 262 259 251 244 239 238 238 238 238 nan nan nan nan nan nan nan nan nan nan nan 236 233 nan nan nan nan nan nan nan nan nan nan nan nan nan nan nan nan nan nan nan nan nan nan nan nan nan nan nan nan nan nan nan nan nan nan
nan nan nan nan nan nan nan 262 257 252 246 243 240 240 239 238 nan nan nan nan nan nan nan nan nan nan nan nan nan nan nan nan nan nan nan nan nan nan nan nan nan nan nan nan nan nan nan nan nan nan nan nan nan nan nan nan nan nan nan nan nan nan nan